TimeCST,TemperatureF,Dew PointF,Humidity,Sea Level PressureIn,VisibilityMPH,Wind Direction,Wind SpeedMPH,Gust SpeedMPH,PrecipitationIn,Events,Conditions,WindDirDegrees,DateUTC
12:01 AM,23.0,19.4,86,30.16,5.0,North,10.4,-,N/A,,Overcast,10,2013-01-01 06:01:00
12:53 AM,21.9,19.0,89,30.21,5.0,NNE,13.8,-,0.00,,Overcast,20,2013-01-01 06:53:00
1:03 AM,21.2,19.4,93,30.16,4.0,NNE,13.8,-,0.00,Rain,Light Freezing Rain,20,2013-01-01 07:03:00
1:34 AM,21.2,19.4,93,30.16,7.0,NNE,10.4,-,0.00,,Overcast,20,2013-01-01 07:34:00
1:45 AM,21.2,19.4,93,30.16,7.0,NNE,10.4,-,0.00,,Overcast,20,2013-01-01 07:45:00
1:53 AM,21.9,19.0,89,30.21,7.0,NNE,8.1,-,0.00,,Overcast,20,2013-01-01 07:53:00
2:08 AM,21.2,19.4,93,30.16,6.0,NNE,13.8,-,N/A,,Overcast,20,2013-01-01 08:08:00
2:53 AM,21.0,19.0,92,30.23,6.0,North,11.5,-,N/A,,Overcast,360,2013-01-01 08:53:00
3:53 AM,19.9,17.1,89,30.22,8.0,NNE,12.7,-,N/A,,Overcast,20,2013-01-01 09:53:00
4:30 AM,19.4,15.8,86,30.17,9.0,NNE,13.8,-,N/A,,Overcast,20,2013-01-01 10:30:00
4:53 AM,19.0,15.1,85,30.24,9.0,North,12.7,-,N/A,,Overcast,10,2013-01-01 10:53:00
5:53 AM,19.0,12.9,77,30.25,10.0,North,12.7,-,N/A,,Overcast,10,2013-01-01 11:53:00
6:53 AM,18.0,12.9,81,30.29,10.0,North,6.9,-,N/A,,Overcast,360,2013-01-01 12:53:00
7:22 AM,19.4,12.2,74,30.25,10.0,North,8.1,-,N/A,,Overcast,10,2013-01-01 13:22:00
7:35 AM,19.4,12.2,74,30.25,10.0,NNE,10.4,-,N/A,,Overcast,20,2013-01-01 13:35:00
7:53 AM,18.0,12.9,81,30.32,10.0,NNE,10.4,-,N/A,,Overcast,20,2013-01-01 13:53:00
8:53 AM,17.1,12.0,81,30.33,10.0,NNE,8.1,-,N/A,,Overcast,20,2013-01-01 14:53:00
9:53 AM,18.0,10.9,74,30.35,10.0,NNE,8.1,-,N/A,,Overcast,20,2013-01-01 15:53:00
10:53 AM,21.0,12.9,71,30.36,10.0,North,5.8,-,N/A,,Overcast,360,2013-01-01 16:53:00
11:53 AM,21.0,12.0,68,30.34,10.0,NNW,8.1,-,N/A,,Overcast,340,2013-01-01 17:53:00
12:53 PM,23.0,14.0,68,30.32,10.0,NNW,8.1,-,N/A,,Overcast,340,2013-01-01 18:53:00
1:53 PM,25.0,10.9,55,30.32,10.0,NNW,8.1,-,N/A,,Overcast,330,2013-01-01 19:53:00
2:53 PM,24.1,9.0,53,30.31,10.0,NNW,4.6,-,N/A,,Clear,340,2013-01-01 20:53:00
3:53 PM,24.1,12.0,60,30.31,10.0,NW,6.9,-,N/A,,Clear,310,2013-01-01 21:53:00
4:53 PM,21.9,10.9,63,30.31,10.0,NW,3.5,-,N/A,,Clear,310,2013-01-01 22:53:00
5:53 PM,18.0,10.0,71,30.31,10.0,NW,5.8,-,N/A,,Clear,320,2013-01-01 23:53:00
6:53 PM,17.1,9.0,71,30.33,10.0,West,3.5,-,N/A,,Clear,280,2013-01-02 00:53:00
7:53 PM,12.9,7.0,77,30.35,10.0,West,5.8,-,N/A,,Clear,260,2013-01-02 01:53:00
8:53 PM,12.0,7.0,80,30.35,8.0,West,5.8,-,N/A,,Clear,260,2013-01-02 02:53:00
9:53 PM,12.0,8.1,84,30.32,7.0,WSW,4.6,-,N/A,,Clear,250,2013-01-02 03:53:00
10:53 PM,10.9,7.0,84,30.33,7.0,WSW,4.6,-,N/A,,Clear,250,2013-01-02 04:53:00
11:53 PM,12.0,8.1,84,30.32,7.0,West,4.6,-,N/A,,Clear,260,2013-01-02 05:53:00